CST,Max TemperatureF,Mean TemperatureF,Min TemperatureF,Max Dew PointF,MeanDew PointF,Min DewpointF,Max Humidity, Mean Humidity, Min Humidity, Max Sea Level PressureIn, Mean Sea Level PressureIn, Min Sea Level PressureIn, Max VisibilityMiles, Mean VisibilityMiles, Min VisibilityMiles, Max Wind SpeedMPH, Mean Wind SpeedMPH, Max Gust SpeedMPH,PrecipitationIn, CloudCover, Events, WindDirDegrees
2013-2-1,58,49,39,33,29,25,70,51,32,30.44,30.33,30.27,10,10,10,15,8,20,0.00,4,,91
2013-2-2,71,54,37,49,41,29,92,69,45,30.28,30.22,30.17,10,10,10,21,9,35,0.00,2,,246
2013-2-3,69,52,35,38,34,27,89,56,22,30.30,30.21,30.06,10,10,10,14,3,18,0.00,4,,307
2013-2-4,61,52,42,56,49,35,93,75,56,30.06,29.94,29.87,10,9,2,14,5,18,0.15,8,Rain,156
2013-2-5,64,56,47,56,54,47,100,87,73,30.04,29.98,29.91,8,3,0,7,1,9,0.00,6,Fog,101
2013-2-6,59,53,47,57,53,48,100,90,80,30.11,30.03,29.96,8,3,0,12,6,16,0.01,8,Fog-Rain,117
2013-2-7,65,58,50,57,55,50,100,87,73,29.98,29.93,29.87,10,6,0,10,4,13,0.00,7,Fog,163
2013-2-8,64,55,46,56,48,39,100,72,44,30.20,30.13,29.95,10,8,2,17,9,23,T,6,Rain,8
2013-2-9,57,49,40,53,43,37,92,82,71,30.21,30.09,29.90,10,9,5,14,8,18,0.01,7,,103
2013-2-10,70,64,57,63,53,37,97,66,34,29.99,29.84,29.77,10,7,1,21,9,28,1.63,8,Rain-Thunderstorm,247
2013-2-11,59,54,49,48,44,40,86,65,44,30.16,30.10,30.02,10,10,7,20,7,28,0.14,8,Rain,86
2013-2-12,49,48,46,48,46,44,93,90,86,30.03,29.90,29.83,10,7,2,23,8,28,0.28,8,Rain-Thunderstorm,47
2013-2-13,49,42,35,45,38,33,93,77,61,30.12,30.04,29.91,10,10,9,18,7,24,0.00,6,,302
2013-2-14,66,49,31,38,33,28,100,63,26,30.14,30.09,30.04,10,10,7,10,2,10,0.00,0,,230
2013-2-15,59,49,39,43,34,19,86,63,40,30.32,30.23,30.10,10,10,10,20,8,24,0.02,4,Rain,331
2013-2-16,53,42,31,29,23,15,70,46,22,30.38,30.29,29.96,10,10,10,23,7,33,0.00,1,,319
2013-2-17,70,52,33,43,34,24,75,51,27,30.23,30.13,30.04,10,10,10,23,10,28,0.00,1,,184
2013-2-18,71,61,51,61,51,38,87,71,54,30.06,29.93,29.79,10,10,7,28,13,38,0.07,7,Rain-Thunderstorm,186
2013-2-19,63,53,42,37,31,25,70,47,23,30.31,30.22,30.09,10,10,10,13,7,21,0.00,2,,18
2013-2-20,53,49,45,37,32,28,70,58,46,30.23,30.11,29.96,10,10,10,18,11,25,0.01,8,Rain,88
2013-2-21,67,56,45,61,46,30,93,73,53,29.95,29.79,29.63,10,7,0,22,10,28,0.13,8,Fog-Rain-Thunderstorm,88
2013-2-22,53,47,40,45,42,39,100,82,64,30.08,30.00,29.90,10,5,0,14,5,17,0.00,7,Fog,9
2013-2-23,61,48,35,39,36,32,89,65,40,30.05,29.99,29.94,10,10,10,12,5,16,0.00,3,,23
2013-2-24,68,51,34,40,37,33,92,62,32,30.01,29.89,29.73,10,10,10,15,7,22,0.00,2,,102
2013-2-25,69,58,46,61,46,29,100,66,32,29.72,29.54,29.37,10,8,2,30,12,38,0.23,6,Rain-Thunderstorm,182
2013-2-26,58,49,39,36,33,31,85,63,40,29.92,29.74,29.56,10,10,10,36,16,44,0.00,5,,271
2013-2-27,63,48,33,37,30,23,96,60,24,30.12,30.02,29.91,10,10,10,23,8,30,0.00,1,,307
2013-2-28,58,46,33,30,27,23,75,50,25,30.23,30.16,30.11,10,10,10,20,9,24,0.00,1,,305